Location: Newark
(44.6768°N, 22.5302°E)
Time: 21:30:07
(UTC+00:00)

UKube-1 - Pass Details

Date: 09 July 2022
Orbit: 608 x 615 km, 98.4° (Epoch: 11 August)

Event Time Altitude Azimuth Distance (km) Brightness Sun altitude
Rises 19:18:31 0° 33° (NNE) 2,888 ? -9.4°
Reaches altitude 10° 19:21:47 10° 60° (ENE) 1,974 ? -9.8°
Maximum altitude 19:23:57 14° 91° (E) 1,741 ? -10.1°
Enters shadow 19:25:26 12° 113° (ESE) 1,849 ? -10.3°
